Regional Weather Roundup
Issued by NWS Wakefield, VA

Home | Current Version | Previous Version | Text Only | Print | Product List | Glossary Off
Versions: 1 2 3 4 5 6 7 8 9 10 11 12 13 14 15 16 17 18 19 20 21 22 23 24 25 26 27

000
ASUS41 KAKQ 301310
RWRAKQ

REGIONAL WEATHER ROUNDUP
NATIONAL WEATHER SERVICE WAKEFIELD VA
900 AM EDT THU OCT 30 2014

Note: "fair" indicates few or no clouds below 12,000 feet with no
significant weather and/or obstructions to visibility. * = Denotes
station may not report precipitation (e.g., rain,snow,etc.),
thunder or fog.

VAZ042-051-052>054-056-301400-
NORTHERN VIRGINIA

CITY           SKY/WX    TMP DP  RH WIND       PRES   REMARKS
WASH NATIONAL  MOSUNNY   54  37  52 NW14      30.07R
DULLES         MOSUNNY   44  39  82 NW5       30.08R
FORT BELVOIR   SUNNY     48  40  73 NW8       30.08R
QUANTICO       MOSUNNY   51  37  58 N15G24    30.08R
FREDERICKSBRG* PTSUNNY   45  45 100 CALM      30.07R
STAFFORD*      MOSUNNY  N/A N/A N/A NW9       30.11R
WARRENTON      PTSUNNY   46  46 100 N9        30.07R
CULPEPER*      MOSUNNY   46  43  87 N6        30.08R
MANASSAS*      MOSUNNY   39  39 100 CALM      30.08R
LEESBURG*      SUNNY     50  41  71 NW6       30.09R
WINCHESTER     CLOUDY    50  36  57 NW6       30.08R
FRONT ROYAL*   CLOUDY    43  41  93 CALM      30.08R
LURAY*         CLOUDY    41  41 100 CALM      30.09R
$$

VAZ048-049-060>072-079>083-301400-
CENTRAL AND SOUTH CENTRAL VIRGINIA...AND NORTH CENTRAL NORTH CAROLINA

CITY           SKY/WX    TMP DP  RH WIND       PRES   REMARKS
RICHMOND       MOSUNNY   52  44  74 N9        30.06R
CHESTERFIELD*  SUNNY     50  39  66 N6        30.07R
PETERSBURG*    MOSUNNY   50  49  97 N8        30.07R
HANOVER        SUNNY     49  43  80 VRB5      30.08R
TAPPAHANNOCK*  SUNNY     50  43  76 CALM      30.06R
CHARLOTTSVILLE SUNNY     45  42  89 W5        30.07R
ORANGE*        SUNNY     45  43  93 CALM      30.08R
LOUISA*        SUNNY     45  45 100 N5        30.06R
FARMVILLE*     SUNNY     46  46 100 CALM      30.06R
CREWE*         CLOUDY    49  48  95 CALM      30.06R VSB 1/4
FORT PICKETT*  MOSUNNY   50  49  98 N12       30.06R
LUNENBURG*     SUNNY     51  51  99 CALM      30.05R
SOUTH HILL*    SUNNY     55  54  94 CALM      30.10R
LAWRENCEVILLE* SUNNY     51  51 100 CALM      30.05R
ROANOKE RAPIDS SUNNY     52  52 100 CALM      30.05R
RALEIGH        MOSUNNY   53  48  83 CALM      30.06R
$$

VAZ088>098-301400-
SOUTHEAST VIRGINIA

CITY           SKY/WX    TMP DP  RH WIND       PRES   REMARKS
NORFOLK        MOSUNNY   57  53  86 NW7       30.03R
VIRGINIA BEACH PTSUNNY   57  52  83 NW5       30.02R
NORFOLK NAVAL  MOSUNNY   58  52  80 NW9       30.05R
WEST POINT*    SUNNY     52  50  92 N5        30.07R
NEWPORT NEWS   SUNNY     57  53  86 N8        30.04R FOG
LANGLEY AFB    SUNNY     54 N/A N/A N8        30.03R
FORT EUSTIS    SUNNY     55  55 100 NW8       30.03R
WILLIAMSBURG*  SUNNY     54  54 100 N5        30.06R
HR EXEC AP*    CLOUDY    52  50  93 CALM      30.06R VSB 3/4
FRANKLIN*      CLOUDY    52 N/A N/A CALM      30.05R VSB 1/2
WAKEFIELD      NOT AVBL
$$

VAZ020-022-025-037-045-301400-
WEST CENTRAL AND SOUTHWEST VIRGINIA

CITY           SKY/WX    TMP DP  RH WIND       PRES   REMARKS
STAUNTON*      PTSUNNY   36  33  90 CALM      30.11R
HOT SPRINGS VA SUNNY     37  32  83 W7        30.02R
LYNCHBURG      SUNNY     44  41  89 CALM      30.09R
DANVILLE       SUNNY     53  40  61 N7        30.08R
SOUTH BOSTON*  NOT AVBL
MARTINSVILLE   SUNNY     43  42  98 CALM      30.11R
ROANOKE        SUNNY     43  36  76 W5        30.11R
BLACKSBURG     SUNNY     41  39  93 W5        30.11R
DUBLIN*        SUNNY     40  38  95 CALM      30.11R
MARION*        CLOUDY    41  40  95 W7        30.12R FOG
HILLSVILLE*    SUNNY     38  36  91 N7        30.08R
RICHLANDS*     CLOUDY    39  37  92 CALM      30.11R
WISE*          SUNNY     36  36 100 CALM      30.12R FOG
ABINGDON*      FOG       37  37 100 CALM      30.11R VSB<1/4
$$

MDZ021>025-VAZ099-100-301400-
SOUTHERN MARYLAND AND THE DELMARVA PENINSULA

CITY           SKY/WX    TMP DP  RH WIND       PRES   REMARKS
PATUXENT RIVER MOSUNNY   53  42  66 N9        30.05R
BAY BRIDGE APT   N/A     52  41  66 NW9       30.05R
LEONARDTOWN    SUNNY     48  43  81 CALM      30.06R
DOVER          CLOUDY    48  48 100 NW5       30.01R
GEORGETOWN     FOG       48  47  96 CALM      30.03R VSB 1/4
EASTON         PTSUNNY   50  50 100 CALM      30.07R
CAMBRIDGE      SUNNY     52  48  87 CALM      30.03R
SALISBURY      MOSUNNY   55  50  83 CALM      30.03R
OCEAN CITY     SUNNY     53  50  89 MISG      30.02R FOG
WALLOPS ISLAND MOSUNNY   54  50  86 N7        30.03R
ACCOMACK*      SUNNY     50  48  93 NW3       30.03R FOG
$$

NCZ012>017-030>032-301400-
EASTERN NORTH CAROLINA

CITY           SKY/WX    TMP DP  RH WIND       PRES   REMARKS
ELIZABETH CITY CLOUDY    58  52  80 NW9       30.02R
AHOSKIE*       NOT AVBL
EDENTON*       CLOUDY    53  52  98 N7        30.03R FOG
CURRITUCK*     CLOUDY    54  51  90 NW3       30.02R
KILL DEVIL HLS CLOUDY    60  51  74 NE8       29.99R
MANTEO         CLOUDY    59  52  76 NE13      30.00R
CAPE HATTERAS  CLOUDY    61  56  83 NE12G18   29.98R
TARBORO*       CLOUDY    53  51  95 N5        30.06R FOG
GOLDSBORO      SUNNY     56  55  98 N8        30.02R
WASHINGTON     PTSUNNY   53  51  94 N6        30.03R
GREENVILLE     CLOUDY    52  52 100 N3        30.06R
NEW BERN       CLOUDY    58  51  78 N9        30.03R
WILMINGTON     CLOUDY    58  56  93 NE9       30.00R
$$

VAZ048-301400-
ELSEWHERE

CITY           SKY/WX    TMP DP  RH WIND       PRES   REMARKS
HARRISBURG PA  MOSUNNY   47  40  76 NW7       30.05R
BALTIMORE      MOSUNNY   48  41  76 W7        30.05R
ANNAPOLIS      CLOUDY    52  41  66 NW9       30.05R
ANDREWS AFB    SUNNY     50  39  65 NW12      30.05R
WILMINGTON DE  CLOUDY    48  45  89 NW3       30.04R
PHILADELPHIA   MOSUNNY   49  41  74 NW12      30.03R
WILDWOOD NJ*   SUNNY     54  48  82 NW5       30.03R
ATLANTIC CITY  SUNNY     47  46  97 NW6       30.02R
HENDERSON NC   FOG       51  49  95 NW5       30.06R VSB 1/2
GREENSBORO     MOSUNNY   52  40  63 NW6       30.07R
ROCKY MOUNT    SUNNY     54  53  97 N5        30.05R
FAYETTEVILLE   SUNNY     57  52  83 NE7       30.03R
CHARLOTTE      SUNNY     52  42  69 N8        30.08R
$$

VAZ100-301400-
MARINE

STATION/POSITION TIME  TEMP    WIND        PRES    WAVE   SWELL
                       AIR SEA DIR/SP/G            HT/PER HT/PER
                 (UTC) (F)     (DEG/KT/KT) (MB)    (FT/S) (FT/S)
44066 TX TWR #4  1300   59 64  350/  8/ 10 1014.9R   3/ 5   2/ 5
CAPE MAY NJ      1300   57 64  320/  3/  5 1016.1R
LEWES DE         1300   51 61  320/  7/  8 1016.4R
15NM E FENWICK I 1300   59 64              1016.0R   2/ 4
OCEAN-CITY-INLET 1300   54 62  350/  6/  7 1016.1R
WACHAPREAGUE VA  1300   55 62   CALM  /  2 1016.6R
THOMAS POINT MD  1300   50 61  320/ 13/ 14 1018.5R
GOOSES REEF MD   1300   54     350/ 10/ 12 1017.8R
COVE POINT MD    1300   53     350/ 16/ 19 1017.3R
SOLOMONS ISLAND  1300      63                N/A
BISHOPS HEAD MD  1300   54 60  330/ 10/ 11 1016.5R
PINEY POINT MD   1300          340/ 12/ 13   N/A
POTOMAC MD       1300   54     350/ 12/ 14 1016.5R
CAMBRIDGE MD     1300   54 60  310/  9/ 11 1016.9R
LEWISETTA VA     1300   55 62  350/  8/ 12 1017.2R
RAPPAHANNOCK LGT 1300          320/ 13/ 15 1017.2R
STINGRAY PT      1300   56     330/ 10/ 12 1017.5R
YORK RVR RNG VA  1300   56     340/ 11/ 14 1016.6R
YORKTOWN VA      1300   55 63  330/ 11/ 12 1016.8R
JAMESTOWN VA     1300   54     350/  6/  8   N/A
DOMINION TERM VA 1300   56     360/  7/ 11 1016.8R
KIPTOPEKE VA     1300      67   10/  5/  8   N/A
CHES BAY BRIDGE  1300   59 63  330/ 12/ 14 1016.1R
CHESAPEAKE LGHT  1200   60      10/ 13/ 15 1016.1R
WILLOUBY STN VA  1300   55     340/ 11/ 12 1015.5R
S CRANEY ISL VA  1300          310/  8/ 11 1016.6R
CAPE HENRY BUOY  1300      65                N/A     3/ 5
1ST LANDING BUOY 1300   60     360/ 10/ 12 1015.9S
CAPE CHARLES BUO 1300      66                N/A     3/ 5   2/ 6
64NM E OF VA BCH 1300   61 67   30/ 17/ 21 1014.7R   4/ 5
DUCK PIER NC     1300   61 67   30/ 15/ 19 1015.1R
44100 DUCK FRF   1300      67                N/A     5/ 6
OREGON INLET NC  1300   60 68   20/ 14/ 19 1015.5R
HATTERAS NC      1300   62 71   30/ 12/ 17 1015.6R
DIAMOND SHLS NC  1300   67      10/ 17/ 19 1014.3R   5/ 6
CAPE LOOKOUT NC  1200   60      20/ 16/ 19 1014.5R
$$



USA.gov is the U.S. government's official web portal to all federal, state and local government web resources and services.